FALCON 9 R/B, 54757

Orbit data source: Space-Track

FALCON 9 R/B, 54757 is space debris in LEO originally from a launch on Fri, 16 Dec 2022 UTC launched from the Air Force Eastern Test Range (AFETR). Debris objects in space refer to the collection of defunct objects orbiting the Earth. Examples of debris include non-operational satellites, rocket bodies, and fragments generated from explosions, collisions, or faulty payload assembly.

Loading next visibility...
Identifier
54757, 2022-174C
Orbit
LEO
Country
Flag of USUS
Related business
Manufacturer
SpaceX
Mission
Spacecraft
Bus & Motor
F9ST2, Unknown motor
Mass
~4,000 kg wet, ~4,000 kg dry
Launch date (UTC)
2022-12-16 (4 years ago)
Launch vehicle
Unknown
Launch site
Air Force Eastern Test Range (AFETR)
Object type
Payload
Rocket body
Debris
Shape & HBR
Cyl, 7.8 m
Radar Cross Section
39.980 m², Large (>1 m²)

Expand to show TLE details & history
Last TLE update: 1 week ago

TLE from 1 week ago
0 FALCON 9 R/B
1 54757U 22174C   26166.77643107  .00000047  00000-0  00000-0 0  9991
2 54757   9.6115 215.9957 1869603 192.6300 161.9711  7.26282692 92836
Epoch: 2026-06-15T18:38Z
TLE epoch observation values (Epoch: 2026-06-15T18:38:03.644Z)
Latitude
-0°
Longitude
32.42255°
Altitude
6,914.779 km
Speed
4.959 km/s
True Right ascension
14h 23m 58s
True Declination
0° 00' 00"
Sunlit
Object was in daylight at epoch
Visualization orbit readout
Latitude
Unknown
Longitude
Unknown
Altitude
Unknown
Speed
Unknown
Apparent Right ascension
Unknown
Apparent Declination
Unknown
Sunlit
N/A
Visualization observer readout
Local Sidereal Time
21:33:19
Azimuth
Unknown
Elevation
Unknown
Doppler factor
Unknown
Orbital elements
Apogee altitude
6,995.624 km
Perigee altitude
2,782.573 km
Semi-major axis
11,267.236 km
Eccentricity
0.18696
Inclination
9.6115°
RAAN
215.9957°
Arg. of periapsis
192.63°
True anomaly
167.38241°
Mean anomaly
161.9711°
Eccentric anomaly
164.78279°
Mean motion
1.81475 °/min
Orbital period
198.37 mins
BSTAR
0
Loading maneuver chart data...
Computing Atmospheric mass density...
Loading historical data...
Loading historical data...
Loading historical data...
Loading historical data...
Loading historical data...
Loading historical data...
Loading historical data...
Other satellites on launch #174 in the year 2022 (2022-12-16 UTC)

Documentation

Showing up to 5 results
|